Hourly Data Report for September 02, 2020

SHEARWATER RCS
NOVA SCOTIA
Current Station Operator: ECCC - MSC

44°37'47.000" N
63°30'48.000" W
24.00 m
8205092
71264
AAW

Download Data

Hourly Data (September 2020)
Hourly Data Report for September 2, 2020
TIME Temp Definition
°C
Dew Point Definition
°C
Rel Hum Definition
%
Wind Dir Definition
10's deg

Wind Spd Definition
km/h
Visibility Definition
km
Stn Press Definition
kPa
Hmdx Definition


Wind Chill Definition


Weather Definition


00:00 10.9 9.7 92 0 1   102.24     LegendNANA
01:00 10.4 9.3 93   0   102.21     LegendNANA
02:00 10.3 9.4 94 6 6   102.15     LegendNANA
03:00 9.8 9.0 95 8 2   102.09     LegendNANA
04:00 10.2 9.6 96 34 1   102.12     LegendNANA
05:00 10.1 9.5 96   0   102.13     LegendNANA
06:00 10.0 9.5 97 4 9   102.07     LegendNANA
07:00 12.3 11.8 97 6 7   102.00     LegendNANA
08:00 14.9 12.9 88 20 1   102.03     LegendNANA
09:00 16.6 13.0 79 16 9   102.02     LegendNANA
10:00 17.3 13.3 77 16 11   101.98     LegendNANA
11:00 18.4 13.1 71 14 15   101.91     LegendNANA
12:00 18.9 13.3 70 15 17   101.84     LegendNANA
13:00 19.0 12.3 65 15 18   101.77     LegendNANA
14:00 17.8 12.9 73 14 19   101.68     LegendNANA
15:00 16.9 12.6 76 15 16   101.71     LegendNANA
16:00 17.1 13.0 77 15 16   101.63     LegendNANA
17:00 16.1 12.7 80 15 13   101.58     LegendNANA
18:00 15.7 12.6 82 16 10   101.52     LegendNANA
19:00 15.1 12.9 87 15 9   101.46     LegendNANA
20:00 15.6 13.9 89 14 8   101.46     LegendNANA
21:00 16.0 14.4 90 14 10   101.42     LegendNANA
22:00 16.0 14.5 91 14 10   101.34     LegendNANA
23:00 16.0 14.6 91 13 11   101.25     LegendNANA

Notes on Data Quality.

Legend

  • E = Estimated
  • M = Missing
  • NA = Not Available*
  • [empty] = Indicates an unobserved value
Date modified: